Погода в Сорочинске

Погода в Сорочинске : погода сейчас, прогноз погоды и архив. Всё, что Вы хотите узнать о погоде в Сорочинске!

Хотите узнать прогноз погоды в Сорочинске? Тогда Вам сюда: Погода в Сорочинске

Поиск расширенной информации на нашем сайте:

Другие новости

Новости СМИ2

Главная страница сайта

Новости сайта

03.07.2017

Напоминаем, что на нашем специализированном сайте Метеоцентр.Азия вы можете получить высокодетализированные автоматические прогнозы погоды по пунктам России, СНГ и мира в авиационном формате (включающие направление и скорость ветра, видимость, явления погоды, количество и форму облачности, нижнюю и верхнюю границу облачности).


Погода в Сорочинске - сегодня

Время (UTC), дата Ветер
(°,м/с) 
Видим.   Явления Облачность Т
(°С)
Тd
(°С)
f(%) Тe
(°С)
Pmin
(гПа)
dP
(гПа)
Po
(мм)
O2
(г/м3)
Тmin Tmax R s Состояние
почвы
18 16.02.18 тихо ()   4000 м  дымка [диам. изморози 0 мм]  ясно 
-13.7 -15.2 88 -14  1044.8  0.1  771  328           
21 16.02.18 тихо ()   0500 м  переохл. туман [диам. изморози 0 мм]  н/о 
-13.5 -15 88 -14  1044.5  -0.3  771  328           
03 17.02.18 тихо ()   0500 м  переохл. туман{снег} [диам. изморози 10 мм]  н/о 
-13.3 -14.9 88 -13  1044  -0.4  770  328  -14.5    0.0  равномерный
мокрый или
старый снег
100% 
06 17.02.18 тихо ()   0500 м  переохл. туман{снег} [диам. изморози 30 мм]  н/о 
-10.9 -12 92 -11  1043.4  -0.4  770  324           
09 17.02.18 100 (В) 20000 м  {снег, туман}  ясно 
-8.9 -11.1 84 -9  1042.3  -0.9  769  322           
18 17.02.18 130 (ЮВ) 20000 м    4/0 верхняя 
[Ci fib]
-12.4 -13.7 90 -14  1040.4  -0.4  768  325           
21 17.02.18 110 (В) 20000 м    ясно 
-14.3 -15.7 89 -14  1040.1  -0.4  767  328           
00 18.02.18 110 (В) 20000 м    ясно 
-15.5 -17.2 87 -16  1039.5  -0.7  767  329           
06 18.02.18 120 (ЮВ) 20000 м    ясно 
-13.7 -15.4 87 -16  1038.6  0.1  766  326           
09 18.02.18 130 (ЮВ) 20000 м    6/0 средняя, верхняя 
[Ac trans|Ci fib]
-7 -11.2 72 -11  1037  -1.2  765  318           
12 18.02.18 140 (ЮВ) 20000 м    10/0 верхняя 
[Ci sp]
-5.1 -9.9 69 -8  1035.5  -1.3  764  315           
18 18.02.18 140 (ЮВ) 20000 м    10/0 средняя 
[As op]
-8.3 -11.2 80 -13  1032.9  -1.4  762  318           
21 18.02.18 140 (ЮВ) 4000 м  снег  10/0 средняя 
[As op]
-9.7 -11.9 84 -13  1032.7  -0.3  762  320           
03 19.02.18 160 (Ю) 10 км  слаб. снег  10/0 средняя 
[As op]
-9.1 -12.2 78 -12  1029.7  -1.1  760  318  -9.8      равномерный
сухой снег
100% 
09 19.02.18 150 (ЮВ) 20000 м    10/0 средняя 
[As op]
-6.6 -12.2 64 -10  1027.7  -0.9  759  314           
12 19.02.18 150 (ЮВ) 20000 м    10/0 средняя 
[As op]
-4.6 -11.3 59 -6  1026.1  -1.4  758  312           
18 19.02.18 140 (ЮВ) 20000 м    10/0 средняя 
[As op]
-6.4 -10.4 73 -8  1023.7  -1.4  756  313           
21 19.02.18 130 (ЮВ) 20000 м    10/0 средняя 
[Ac As]
-7.2 -10.9 75 -9  1022.3  -1.4  755  313           
03 20.02.18 140 (ЮВ) 4000 м  снег  10/0 средняя 
[As op]
-8.7 -10.1 90 -10  1019.9  -1.1  753  314  -8.7    равномерный
сухой снег
100% 
09 20.02.18 200 (Ю) 10 км  слаб. снег  10/0 средняя 
[As trans]
-7.4 -10.2 80 -10  1018.7  -0.4  752  312           
18 20.02.18 270 (З) 20000 м    ясно 
-14.6 -16.1 88 -15  1018.9  0.4  752  321           
21 20.02.18 тихо ()   20000 м    ясно 
-16.3 -18.1 86 -16  1018.9  0.1  752  324           
00 21.02.18 100 (В) 20000 м    10/0 средняя 
[As op]
-15.6 -17.4 86 -16  1019.2  0.3  752  323           
03 21.02.18 120 (ЮВ) 10 км  слаб. снег  10/0 средняя 
[As op]
-13.3 -14.9 88 -13  1019.4  0.4  752  320  -16.6    0.2  равномерный
сухой снег
100% 
06 21.02.18 250 (З) 10 км  слаб. снег  10/0 средняя 
[As op]
-8.1 -9.6 89 -10  1020.1  753  314           
Время (UTC), дата Ветер
(°,м/с) 
Видим.   Явления Облачность Т
(°С)
Тd
(°С)
f(%) Тe
(°С)
Pmin
(гПа)
dP
(гПа)
Po
(мм)
O2
(г/м3)
Тmin Tmax R s Состояние
почвы

Для получения пояснительной информации подведите курсор к названию столбца.

ПОГОДА в Сорочинске - архив

Всё, что Вы хотите узнать о погоде в Сорочинске - удобно и подробно!

Выберите нужную дату (начиная с 1 января 2015* года) и нажмите кнопку "Найти".
Будут отображены архивные сводки погоды по пункту Сорочинск, начиная с указанной даты.


Отображать данные в формате CSV (для использования в таблицах Excel)


Внимание! Наш архив погоды предназначен исключительно для личного некоммерческого использования в познавательных целях. Если Вам необходимы официальные справки о состоянии погоды (для производственных, юридических, коммерческих и т.п. целей), обращайтесь в органы Росгидромета.

*Примечание: данная дата относится к архиву по метеостанциям СССР (Россия, СНГ, Балтия).
Архив по метеостанциям Зарубежной Европы и Азии (кроме Китая) хранится 10 дней, по другим регионам земного шара (Китай, Африка, Америка, Австралия, Океания) - 1 день.

Сорочинск - район местоположения метеостанции


Название, широта, долгота, высота метеостанции:
Сорочинск 52.4°ш. 53.1°д. 123 м над ур. моря [Российская Федерация]

Дополнительная информация

В oтличие oт бoльшинства пoгoдных сайтoв мы публикуем пoдрoбную метеoинфoрмацию в детальнoм прoфессиoнальнoм фoрмате.

Характеристики температуры и влажнoсти вoздуха измеряются на высoте 2 м в тени вдали oт зданий и деревьев.
Скoрoсть ветра измеряется на высoте 10 м (на урoвне рoста челoвека скoрoсть ветра ниже в 1.5-2 раза). Если метеoстанция нахoдится в гoрoде или в лесу, тo скoрoсть ветра занижена на 2-4 м/с пo сравнению с oткрытым местoм. Скoрoсть ветра над акватoриями крупных рек и oзёр, а также на вершинах хoлмoв на 2-5 м/с выше, чем в oбычных услoвиях.
Атмoсфернoе давление в разных тoчках местнoсти мoжет значительнo oтличаться oт давления на метеoстанции, в зависимoсти oт услoвий рельефа (при пoдъёме на 10 м давление пoнижается примернo на 1 мм рт.ст.).